| time (UTC) | temp C | wind direction | speed KPH | gust KPH | rain 1hr cm | rain 24hr cm | rain mn cm | humidity % | barometer mb |
| 20260506114133 | 21 | 269 | 4.8 | 9.7 | 0.00 | 0.00 | 0.00 | 82 | 1016.1 |
| 20260506113632 | 21 | 249 | 4.8 | 9.7 | 0.00 | 0.00 | 0.00 | 83 | 1016.2 |
| 20260506113132 | 21 | 219 | 4.8 | 11.3 | 0.00 | 0.00 | 0.00 | 83 | 1016.1 |
| 20260506112630 | 21 | 197 | 6.4 | 11.3 | 0.00 | 0.00 | 0.00 | 83 | 1016.1 |
| 20260506112127 | 21 | 220 | 8.0 | 14.5 | 0.00 | 0.00 | 0.00 | 83 | 1016.0 |
| 20260506111628 | 21 | 175 | 9.7 | 14.5 | 0.00 | 0.00 | 0.00 | 82 | 1015.8 |
| 20260506111128 | 21 | 175 | 8.0 | 14.5 | 0.00 | 0.00 | 0.00 | 83 | 1015.9 |
| 20260506110856 | 20 | 154 | 6.4 | 12.9 | 0.00 | 0.00 | 0.00 | 83 | 1015.9 |
| 20260506110126 | 20 | 194 | 8.0 | 12.9 | 0.00 | 0.00 | 0.00 | 82 | 1016.0 |
| 20260506105856 | 20 | 195 | 8.0 | 12.9 | 0.00 | 0.00 | 0.00 | 82 | 1015.8 |
| 20260506105125 | 20 | 182 | 8.0 | 12.9 | 0.00 | 0.00 | 0.00 | 82 | 1015.7 |
| 20260506104626 | 20 | 182 | 8.0 | 12.9 | 0.00 | 0.00 | 0.00 | 82 | 1015.7 |
| 20260506104126 | 20 | 186 | 6.4 | 11.3 | 0.00 | 0.00 | 0.00 | 83 | 1015.8 |
| 20260506103626 | 20 | 176 | 6.4 | 11.3 | 0.00 | 0.00 | 0.00 | 83 | 1015.8 |
| 20260506103126 | 20 | 230 | 8.0 | 12.9 | 0.00 | 0.00 | 0.00 | 83 | 1015.8 |
| 20260506102626 | 20 | 184 | 8.0 | 12.9 | 0.00 | 0.00 | 0.00 | 83 | 1015.7 |
| 20260506102126 | 20 | 227 | 8.0 | 12.9 | 0.00 | 0.00 | 0.00 | 84 | 1015.7 |
| 20260506101626 | 20 | 191 | 4.8 | 12.9 | 0.00 | 0.00 | 0.00 | 84 | 1015.6 |
| 20260506101119 | 20 | 180 | 4.8 | 11.3 | 0.00 | 0.00 | 0.00 | 84 | 1015.6 |
| 20260506100619 | 20 | 184 | 4.8 | 9.7 | 0.00 | 0.00 | 0.00 | 84 | 1015.5 |
| 20260506095618 | 20 | 181 | 6.4 | 12.9 | 0.00 | 0.00 | 0.00 | 84 | 1015.6 |
| 20260506095118 | 20 | 124 | 8.0 | 12.9 | 0.00 | 0.00 | 0.00 | 84 | 1015.7 |
| 20260506094618 | 20 | 184 | 8.0 | 12.9 | 0.00 | 0.00 | 0.00 | 84 | 1015.6 |
| 20260506094118 | 20 | 181 | 6.4 | 11.3 | 0.00 | 0.00 | 0.00 | 84 | 1015.6 |
| 20260506093619 | 20 | 173 | 6.4 | 9.7 | 0.00 | 0.00 | 0.00 | 84 | 1015.4 |
| 20260506093118 | 20 | 171 | 6.4 | 9.7 | 0.00 | 0.00 | 0.00 | 84 | 1015.4 |
| 20260506092618 | 20 | 173 | 6.4 | 11.3 | 0.00 | 0.00 | 0.00 | 83 | 1015.3 |
| 20260506092118 | 20 | 184 | 8.0 | 12.9 | 0.00 | 0.00 | 0.00 | 83 | 1015.5 |
| 20260506091618 | 20 | 184 | 8.0 | 12.9 | 0.00 | 0.00 | 0.00 | 83 | 1015.5 |
| 20260506091118 | 20 | 182 | 8.0 | 12.9 | 0.00 | 0.00 | 0.00 | 84 | 1015.4 |
| 20260506090617 | 20 | 176 | 8.0 | 12.9 | 0.00 | 0.00 | 0.00 | 84 | 1015.4 |
| 20260506090118 | 20 | 184 | 8.0 | 11.3 | 0.00 | 0.00 | 0.00 | 85 | 1015.4 |
| 20260506085618 | 20 | 186 | 6.4 | 11.3 | 0.00 | 0.00 | 0.00 | 85 | 1015.4 |
| 20260506085119 | 20 | 179 | 6.4 | 12.9 | 0.00 | 0.00 | 0.00 | 85 | 1015.4 |
| 20260506084615 | 20 | 155 | 8.0 | 12.9 | 0.00 | 0.00 | 0.00 | 85 | 1015.6 |
| 20260506084116 | 20 | 181 | 8.0 | 12.9 | 0.00 | 0.00 | 0.00 | 85 | 1015.6 |
| 20260506083616 | 20 | 184 | 8.0 | 12.9 | 0.00 | 0.00 | 0.00 | 84 | 1015.6 |
| 20260506083116 | 20 | 198 | 6.4 | 12.9 | 0.00 | 0.00 | 0.00 | 84 | 1015.5 |
| 20260506082615 | 20 | 180 | 6.4 | 11.3 | 0.00 | 0.00 | 0.00 | 84 | 1015.4 |
| 20260506082116 | 20 | 182 | 8.0 | 11.3 | 0.00 | 0.00 | 0.00 | 83 | 1015.5 |
| 20260506081615 | 20 | 158 | 9.7 | 14.5 | 0.00 | 0.00 | 0.00 | 83 | 1015.6 |
| 20260506081115 | 20 | 163 | 9.7 | 14.5 | 0.00 | 0.00 | 0.00 | 82 | 1015.6 |
| 20260506080616 | 20 | 188 | 9.7 | 14.5 | 0.00 | 0.00 | 0.00 | 82 | 1015.5 |
| 20260506080347 | 20 | 204 | 9.7 | 14.5 | 0.00 | 0.00 | 0.00 | 82 | 1015.5 |
| 20260506073113 | 20 | 175 | 8.0 | 12.9 | 0.00 | 0.00 | 0.00 | 80 | 1015.7 |
| 20260506072612 | 20 | 186 | 8.0 | 12.9 | 0.00 | 0.00 | 0.00 | 80 | 1015.7 |
| 20260506072112 | 20 | 226 | 8.0 | 11.3 | 0.00 | 0.00 | 0.00 | 80 | 1015.8 |
| 20260506071612 | 20 | 214 | 6.4 | 11.3 | 0.00 | 0.00 | 0.00 | 81 | 1015.8 |
| 20260506071116 | 20 | 175 | 6.4 | 11.3 | 0.00 | 0.00 | 0.00 | 82 | 1015.9 |
| 20260506071111 | 20 | 232 | 6.4 | 11.3 | 0.00 | 0.00 | 0.00 | 81 | 1015.8 |
| 20260506070112 | 20 | 191 | 6.4 | 12.9 | 0.00 | 0.00 | 0.00 | 82 | 1015.8 |
| 20260506062103 | 20 | 215 | 9.7 | 19.3 | 0.00 | 0.00 | 0.00 | 80 | 1015.7 |
| 20260506061606 | 20 | 171 | 9.7 | 16.1 | 0.00 | 0.00 | 0.00 | 80 | 1015.8 |
| 20260506061107 | 20 | 169 | 8.0 | 16.1 | 0.00 | 0.00 | 0.00 | 80 | 1015.9 |
| 20260506060605 | 20 | 161 | 8.0 | 16.1 | 0.00 | 0.00 | 0.00 | 80 | 1016.0 |
| 20260506051058 | 20 | 188 | 9.7 | 16.1 | 0.00 | 0.00 | 0.00 | 78 | 1016.7 |
| 20260506050557 | 20 | 171 | 9.7 | 16.1 | 0.00 | 0.00 | 0.00 | 77 | 1016.6 |
| 20260506045056 | 20 | 157 | 9.7 | 17.7 | 0.00 | 0.00 | 0.00 | 78 | 1016.7 |
| 20260506044556 | 20 | 173 | 9.7 | 17.7 | 0.00 | 0.00 | 0.00 | 78 | 1016.8 |
| 20260506044056 | 20 | 179 | 9.7 | 14.5 | 0.00 | 0.00 | 0.00 | 79 | 1016.9 |
| 20260506043555 | 20 | 184 | 9.7 | 17.7 | 0.00 | 0.00 | 0.00 | 79 | 1016.9 |
| 20260506043328 | 20 | 180 | 9.7 | 17.7 | 0.00 | 0.00 | 0.00 | 79 | 1016.9 |
| 20260506042556 | 20 | 177 | 11.3 | 17.7 | 0.00 | 0.00 | 0.00 | 78 | 1017.0 |
| 20260506042056 | 20 | 173 | 11.3 | 17.7 | 0.00 | 0.00 | 0.00 | 79 | 1017.1 |
| 20260506041555 | 20 | 214 | 9.7 | 17.7 | 0.00 | 0.00 | 0.00 | 78 | 1017.1 |
| 20260506041056 | 20 | 149 | 9.7 | 16.1 | 0.00 | 0.00 | 0.00 | 79 | 1017.1 |
| 20260506040827 | 20 | 157 | 8.0 | 16.1 | 0.00 | 0.00 | 0.00 | 78 | 1017.1 |
| 20260506040050 | 20 | 156 | 9.7 | 16.1 | 0.00 | 0.00 | 0.00 | 79 | 1017.1 |
| 20260506035551 | 20 | 188 | 9.7 | 16.1 | 0.00 | 0.00 | 0.00 | 78 | 1017.2 |
| 20260506035325 | 20 | 173 | 9.7 | 16.1 | 0.00 | 0.00 | 0.00 | 79 | 1017.2 |
| 20260506034548 | 20 | 156 | 9.7 | 16.1 | 0.00 | 0.00 | 0.00 | 78 | 1017.2 |
| 20260506034048 | 20 | 190 | 9.7 | 16.1 | 0.00 | 0.00 | 0.00 | 78 | 1017.1 |
| 20260506033548 | 20 | 155 | 9.7 | 19.3 | 0.00 | 0.00 | 0.00 | 79 | 1017.2 |
| 20260506033046 | 20 | 190 | 9.7 | 19.3 | 0.00 | 0.00 | 0.00 | 78 | 1017.2 |
| 20260506032546 | 20 | 149 | 9.7 | 16.1 | 0.00 | 0.00 | 0.00 | 78 | 1017.2 |
| 20260506032046 | 20 | 197 | 9.7 | 16.1 | 0.00 | 0.00 | 0.00 | 78 | 1017.2 |
| 20260506031544 | 20 | 161 | 9.7 | 16.1 | 0.00 | 0.00 | 0.00 | 78 | 1017.3 |
| 20260506031044 | 20 | 174 | 9.7 | 17.7 | 0.00 | 0.00 | 0.00 | 78 | 1017.3 |
| 20260506030546 | 20 | 177 | 9.7 | 17.7 | 0.00 | 0.00 | 0.00 | 78 | 1017.4 |
| 20260506030315 | 20 | 159 | 9.7 | 16.1 | 0.00 | 0.00 | 0.00 | 77 | 1017.4 |
| 20260506025544 | 20 | 172 | 9.7 | 20.9 | 0.00 | 0.00 | 0.00 | 77 | 1017.4 |
| 20260506025043 | 20 | 141 | 11.3 | 20.9 | 0.00 | 0.00 | 0.00 | 77 | 1017.4 |
| 20260506024538 | 20 | 184 | 9.7 | 16.1 | 0.00 | 0.00 | 0.00 | 77 | 1017.3 |
| 20260506024032 | 20 | 175 | 9.7 | 17.7 | 0.00 | 0.00 | 0.00 | 78 | 1017.4 |
| 20260506023525 | 20 | 165 | 9.7 | 17.7 | 0.00 | 0.00 | 0.00 | 78 | 1017.4 |
| 20260506023020 | 20 | 176 | 9.7 | 16.1 | 0.00 | 0.00 | 0.00 | 77 | 1017.4 |
| 20260506022514 | 20 | 176 | 9.7 | 19.3 | 0.00 | 0.00 | 0.00 | 77 | 1017.4 |
| 20260506022008 | 20 | 179 | 11.3 | 19.3 | 0.00 | 0.00 | 0.00 | 77 | 1017.5 |
| 20260506021502 | 20 | 164 | 11.3 | 16.1 | 0.00 | 0.00 | 0.00 | 77 | 1017.4 |
| 20260506020955 | 20 | 182 | 11.3 | 17.7 | 0.00 | 0.00 | 0.00 | 77 | 1017.3 |
| 20260506020449 | 20 | 165 | 11.3 | 17.7 | 0.00 | 0.00 | 0.00 | 77 | 1017.3 |
| 20260506020214 | 20 | 152 | 11.3 | 17.7 | 0.00 | 0.00 | 0.00 | 77 | 1017.3 |
| 20260506015437 | 20 | 180 | 11.3 | 17.7 | 0.00 | 0.00 | 0.00 | 77 | 1017.3 |
| 20260506014931 | 20 | 187 | 11.3 | 19.3 | 0.00 | 0.00 | 0.00 | 77 | 1017.2 |
| 20260506014428 | 20 | 186 | 11.3 | 20.9 | 0.00 | 0.00 | 0.00 | 77 | 1017.1 |
| 20260506013928 | 20 | 168 | 11.3 | 20.9 | 0.00 | 0.00 | 0.00 | 77 | 1017.1 |
| 20260506013428 | 20 | 181 | 9.7 | 17.7 | 0.00 | 0.00 | 0.00 | 79 | 1017.1 |
| 20260506012926 | 20 | 149 | 11.3 | 19.3 | 0.00 | 0.00 | 0.00 | 79 | 1017.0 |
| 20260506012428 | 20 | 161 | 9.7 | 19.3 | 0.00 | 0.00 | 0.00 | 78 | 1017.1 |
| 20260506012156 | 20 | 265 | 9.7 | 20.9 | 0.00 | 0.00 | 0.00 | 79 | 1017.0 |
| 20260506011655 | 20 | 180 | 9.7 | 20.9 | 0.00 | 0.00 | 0.00 | 79 | 1017.1 |
| 20260506010924 | 20 | 181 | 9.7 | 16.1 | 0.00 | 0.00 | 0.00 | 79 | 1017.1 |
| 20260506010424 | 20 | 153 | 9.7 | 17.7 | 0.00 | 0.00 | 0.00 | 79 | 1017.0 |
| 20260506005924 | 20 | 153 | 9.7 | 17.7 | 0.00 | 0.00 | 0.00 | 79 | 1017.0 |
| 20260506005424 | 20 | 174 | 9.7 | 17.7 | 0.00 | 0.00 | 0.00 | 79 | 1017.0 |
| 20260506004924 | 20 | 188 | 9.7 | 17.7 | 0.00 | 0.00 | 0.00 | 79 | 1017.0 |
| 20260506004424 | 20 | 180 | 9.7 | 16.1 | 0.00 | 0.00 | 0.00 | 79 | 1017.0 |
| 20260506003924 | 20 | 176 | 9.7 | 16.1 | 0.00 | 0.00 | 0.00 | 79 | 1016.9 |
| 20260506003424 | 20 | 187 | 9.7 | 16.1 | 0.00 | 0.00 | 0.00 | 80 | 1016.9 |
| 20260506002924 | 21 | 179 | 11.3 | 17.7 | 0.00 | 0.00 | 0.00 | 80 | 1016.9 |
| 20260506002424 | 21 | 174 | 9.7 | 17.7 | 0.00 | 0.00 | 0.00 | 81 | 1016.9 |
| 20260506001918 | 21 | 161 | 9.7 | 16.1 | 0.00 | 0.00 | 0.00 | 81 | 1017.0 |
| 20260506001412 | 21 | 238 | 9.7 | 16.1 | 0.00 | 0.00 | 0.00 | 81 | 1016.9 |
| 20260506000905 | 21 | 185 | 9.7 | 17.7 | 0.00 | 0.00 | 0.00 | 80 | 1016.8 |
| 20260506000631 | 21 | 178 | 9.7 | 14.5 | 0.00 | 0.00 | 0.00 | 79 | 1017.0 |
| 20260505235853 | 21 | 176 | 9.7 | 14.5 | 0.00 | 0.00 | 0.00 | 79 | 1016.9 |
| 20260505235347 | 21 | 169 | 9.7 | 14.5 | 0.00 | 0.00 | 0.00 | 78 | 1016.9 |
| 20260505235112 | 21 | 167 | 9.7 | 14.5 | 0.00 | 0.00 | 0.00 | 78 | 1016.9 |
| 20260505234606 | 21 | 198 | 9.7 | 16.1 | 0.00 | 0.00 | 0.00 | 77 | 1016.9 |
| 20260505233829 | 21 | 199 | 8.0 | 16.1 | 0.00 | 0.00 | 0.00 | 77 | 1016.9 |
| 20260505233324 | 21 | 166 | 8.0 | 14.5 | 0.00 | 0.00 | 0.00 | 76 | 1016.9 |
| 20260505232817 | 21 | 160 | 8.0 | 17.7 | 0.00 | 0.00 | 0.00 | 75 | 1016.9 |
| 20260505232413 | 21 | 172 | 6.4 | 17.7 | 0.00 | 0.00 | 0.00 | 73 | 1016.9 |
| 20260505231530 | 22 | 319 | 4.8 | 14.5 | 0.00 | 0.00 | 0.00 | 73 | 1016.8 |
| 20260505230753 | 22 | 267 | 6.4 | 14.5 | 0.00 | 0.00 | 0.00 | 73 | 1016.9 |
| 20260505230248 | 22 | 237 | 9.7 | 16.1 | 0.00 | 0.00 | 0.00 | 73 | 1016.8 |
| 20260505225742 | 21 | 242 | 8.0 | 16.1 | 0.00 | 0.00 | 0.00 | 72 | 1016.8 |
| 20260505225235 | 22 | 282 | 6.4 | 16.1 | 0.00 | 0.00 | 0.00 | 71 | 1016.8 |
| 20260505224730 | 22 | 226 | 6.4 | 16.1 | 0.00 | 0.00 | 0.00 | 71 | 1016.8 |
| 20260505224224 | 22 | 261 | 6.4 | 16.1 | 0.00 | 0.00 | 0.00 | 71 | 1016.9 |
| 20260505223718 | 22 | 138 | 6.4 | 17.7 | 0.00 | 0.00 | 0.00 | 71 | 1016.9 |
| 20260505223211 | 22 | 184 | 6.4 | 17.7 | 0.00 | 0.00 | 0.00 | 72 | 1017.0 |
| 20260505222706 | 22 | 84 | 4.8 | 12.9 | 0.00 | 0.00 | 0.00 | 70 | 1016.9 |
| 20260505222200 | 22 | 176 | 6.4 | 17.7 | 0.00 | 0.00 | 0.00 | 71 | 1017.0 |
| 20260505221654 | 22 | 231 | 6.4 | 17.7 | 0.00 | 0.00 | 0.00 | 71 | 1017.0 |
| 20260505221147 | 22 | 201 | 8.0 | 17.7 | 0.00 | 0.00 | 0.00 | 71 | 1016.8 |
| 20260505220641 | 22 | 199 | 9.7 | 20.9 | 0.00 | 0.00 | 0.00 | 72 | 1016.8 |
| 20260505220136 | 22 | 145 | 9.7 | 20.9 | 0.00 | 0.00 | 0.00 | 71 | 1016.7 |
| 20260505215629 | 22 | 176 | 9.7 | 17.7 | 0.00 | 0.00 | 0.00 | 71 | 1016.7 |
| 20260505215124 | 22 | 177 | 11.3 | 19.3 | 0.00 | 0.00 | 0.00 | 71 | 1016.7 |
| 20260505214618 | 22 | 174 | 11.3 | 19.3 | 0.00 | 0.00 | 0.00 | 70 | 1016.6 |
| 20260505214111 | 22 | 168 | 9.7 | 17.7 | 0.00 | 0.00 | 0.00 | 71 | 1016.6 |
| 20260505213606 | 22 | 166 | 9.7 | 17.7 | 0.00 | 0.00 | 0.00 | 69 | 1016.7 |
| 20260505213100 | 22 | 242 | 9.7 | 19.3 | 0.00 | 0.00 | 0.00 | 67 | 1016.6 |
| 20260505212554 | 22 | 153 | 9.7 | 19.3 | 0.00 | 0.00 | 0.00 | 69 | 1016.7 |
| 20260505212048 | 22 | 170 | 11.3 | 17.7 | 0.00 | 0.00 | 0.00 | 69 | 1016.8 |
| 20260505211546 | 22 | 143 | 12.9 | 27.4 | 0.00 | 0.00 | 0.00 | 71 | 1016.8 |
| 20260505211046 | 22 | 192 | 11.3 | 27.4 | 0.00 | 0.00 | 0.00 | 67 | 1016.9 |
| 20260505210546 | 22 | 234 | 11.3 | 19.3 | 0.00 | 0.00 | 0.00 | 68 | 1016.9 |
| 20260505210317 | 22 | 189 | 11.3 | 20.9 | 0.00 | 0.00 | 0.00 | 70 | 1016.9 |
| 20260505205546 | 22 | 193 | 12.9 | 20.9 | 0.00 | 0.00 | 0.00 | 72 | 1016.9 |
| 20260505205046 | 22 | 186 | 11.3 | 22.5 | 0.00 | 0.00 | 0.00 | 71 | 1017.0 |
| 20260505204817 | 22 | 170 | 9.7 | 22.5 | 0.00 | 0.00 | 0.00 | 69 | 1016.9 |
| 20260505204046 | 22 | 172 | 8.0 | 17.7 | 0.00 | 0.00 | 0.00 | 69 | 1016.9 |
| 20260505203546 | 23 | 90 | 8.0 | 17.7 | 0.00 | 0.00 | 0.00 | 70 | 1017.0 |
| 20260505203046 | 23 | 189 | 8.0 | 17.7 | 0.00 | 0.00 | 0.00 | 70 | 1017.0 |
| 20260505202546 | 22 | 208 | 8.0 | 20.9 | 0.00 | 0.00 | 0.00 | 71 | 1017.0 |
| 20260505202046 | 22 | 130 | 9.7 | 20.9 | 0.00 | 0.00 | 0.00 | 68 | 1017.0 |
| 20260505201818 | 23 | 6 | 9.7 | 17.7 | 0.00 | 0.00 | 0.00 | 69 | 1017.2 |
| 20260505201046 | 23 | 258 | 9.7 | 20.9 | 0.00 | 0.00 | 0.00 | 68 | 1017.3 |
| 20260505200549 | 22 | 201 | 9.7 | 20.9 | 0.00 | 0.00 | 0.00 | 67 | 1017.3 |
| 20260505200319 | 23 | 274 | 9.7 | 19.3 | 0.00 | 0.00 | 0.00 | 68 | 1017.3 |
| 20260505195548 | 23 | 175 | 9.7 | 19.3 | 0.00 | 0.00 | 0.00 | 67 | 1017.4 |
| 20260505195043 | 23 | 155 | 9.7 | 24.1 | 0.00 | 0.00 | 0.00 | 65 | 1017.5 |
| 20260505194537 | 23 | 168 | 9.7 | 24.1 | 0.00 | 0.00 | 0.00 | 67 | 1017.6 |
| 20260505194031 | 23 | 231 | 9.7 | 22.5 | 0.00 | 0.00 | 0.00 | 65 | 1017.7 |
| 20260505193524 | 23 | 319 | 9.7 | 22.5 | 0.00 | 0.00 | 0.00 | 65 | 1017.7 |
| 20260505193018 | 23 | 260 | 9.7 | 22.5 | 0.00 | 0.00 | 0.00 | 67 | 1017.8 |
| 20260505192512 | 23 | 156 | 8.0 | 20.9 | 0.00 | 0.00 | 0.00 | 68 | 1017.9 |
| 20260505192237 | 23 | 274 | 9.7 | 22.5 | 0.00 | 0.00 | 0.00 | 68 | 1017.8 |
| 20260505191500 | 23 | 266 | 11.3 | 22.5 | 0.00 | 0.00 | 0.00 | 66 | 1017.8 |
| 20260505190955 | 23 | 168 | 12.9 | 22.5 | 0.00 | 0.00 | 0.00 | 68 | 1017.8 |
| 20260505190448 | 23 | 166 | 12.9 | 20.9 | 0.00 | 0.00 | 0.00 | 65 | 1017.9 |
| 20260505190214 | 23 | 163 | 12.9 | 20.9 | 0.00 | 0.00 | 0.00 | 67 | 1017.8 |
| 20260505185437 | 23 | 200 | 11.3 | 22.5 | 0.00 | 0.00 | 0.00 | 67 | 1017.8 |
| 20260505184930 | 23 | 161 | 11.3 | 22.5 | 0.00 | 0.00 | 0.00 | 66 | 1018.0 |
| 20260505184424 | 23 | 170 | 12.9 | 22.5 | 0.00 | 0.00 | 0.00 | 65 | 1018.0 |
| 20260505183918 | 23 | 165 | 12.9 | 25.7 | 0.00 | 0.00 | 0.00 | 67 | 1018.0 |
| 20260505183643 | 23 | 184 | 14.5 | 25.7 | 0.00 | 0.00 | 0.00 | 66 | 1018.0 |
| 20260505182907 | 23 | 203 | 12.9 | 25.7 | 0.00 | 0.00 | 0.00 | 65 | 1018.1 |
| 20260505182401 | 23 | 168 | 11.3 | 22.5 | 0.00 | 0.00 | 0.00 | 67 | 1018.1 |
| 20260505181855 | 23 | 165 | 11.3 | 20.9 | 0.00 | 0.00 | 0.00 | 65 | 1018.1 |
| 20260505181620 | 23 | 195 | 9.7 | 17.7 | 0.00 | 0.00 | 0.00 | 70 | 1018.1 |
| 20260505180843 | 23 | 299 | 9.7 | 17.7 | 0.00 | 0.00 | 0.00 | 66 | 1018.1 |
| 20260505180337 | 23 | 169 | 9.7 | 17.7 | 0.00 | 0.00 | 0.00 | 70 | 1018.1 |
| 20260505175831 | 23 | 240 | 9.7 | 17.7 | 0.00 | 0.00 | 0.00 | 70 | 1018.1 |
| 20260505175326 | 23 | 140 | 9.7 | 25.7 | 0.00 | 0.00 | 0.00 | 68 | 1018.1 |
| 20260505174818 | 23 | 182 | 11.3 | 25.7 | 0.00 | 0.00 | 0.00 | 69 | 1018.1 |
| 20260505174312 | 22 | 159 | 11.3 | 19.3 | 0.00 | 0.00 | 0.00 | 71 | 1018.2 |
| 20260505173807 | 23 | 170 | 11.3 | 17.7 | 0.00 | 0.00 | 0.00 | 70 | 1018.3 |
| 20260505173305 | 23 | 174 | 9.7 | 17.7 | 0.00 | 0.00 | 0.00 | 70 | 1018.3 |
| 20260505172751 | 23 | 162 | 9.7 | 17.7 | 0.00 | 0.00 | 0.00 | 70 | 1018.2 |
| 20260505172244 | 22 | 197 | 9.7 | 19.3 | 0.00 | 0.00 | 0.00 | 70 | 1018.1 |
| 20260505171738 | 22 | 163 | 9.7 | 19.3 | 0.00 | 0.00 | 0.00 | 67 | 1018.2 |
| 20260505171233 | 23 | 186 | 11.3 | 19.3 | 0.00 | 0.00 | 0.00 | 69 | 1018.2 |
| 20260505170726 | 23 | 165 | 11.3 | 19.3 | 0.00 | 0.00 | 0.00 | 68 | 1018.3 |
| 20260505170220 | 23 | 178 | 9.7 | 22.5 | 0.00 | 0.00 | 0.00 | 67 | 1018.3 |
| 20260505165714 | 23 | 153 | 8.0 | 22.5 | 0.00 | 0.00 | 0.00 | 68 | 1018.5 |
| 20260505165208 | 23 | 166 | 8.0 | 16.1 | 0.00 | 0.00 | 0.00 | 69 | 1018.5 |
| 20260505164702 | 23 | 174 | 8.0 | 16.1 | 0.00 | 0.00 | 0.00 | 68 | 1018.6 |
| 20260505164157 | 23 | 168 | 8.0 | 14.5 | 0.00 | 0.00 | 0.00 | 65 | 1018.6 |
| 20260505163650 | 23 | 143 | 4.8 | 11.3 | 0.00 | 0.00 | 0.00 | 68 | 1018.6 |
| 20260505163144 | 23 | 169 | 4.8 | 14.5 | 0.00 | 0.00 | 0.00 | 66 | 1018.6 |
| 20260505162638 | 23 | 164 | 4.8 | 14.5 | 0.00 | 0.00 | 0.00 | 68 | 1018.6 |
| 20260505162133 | 23 | 222 | 6.4 | 12.9 | 0.00 | 0.00 | 0.00 | 65 | 1018.7 |
| 20260505161627 | 23 | 200 | 6.4 | 12.9 | 0.00 | 0.00 | 0.00 | 66 | 1018.6 |
| 20260505161120 | 23 | 263 | 6.4 | 12.9 | 0.00 | 0.00 | 0.00 | 67 | 1018.5 |
| 20260505160615 | 23 | 173 | 6.4 | 12.9 | 0.00 | 0.00 | 0.00 | 67 | 1018.5 |
| 20260505160109 | 23 | 154 | 4.8 | 11.3 | 0.00 | 0.00 | 0.00 | 66 | 1018.6 |
| 20260505153032 | 23 | 148 | 4.8 | 12.9 | 0.00 | 0.00 | 0.00 | 68 | 1018.8 |
| 20260505152757 | 22 | 331 | 4.8 | 9.7 | 0.00 | 0.00 | 0.00 | 66 | 1018.8 |
| 20260505152020 | 23 | 289 | 4.8 | 8.0 | 0.00 | 0.00 | 0.00 | 65 | 1018.8 |
| 20260505151746 | 23 | 299 | 4.8 | 11.3 | 0.00 | 0.00 | 0.00 | 66 | 1018.6 |
| 20260505151008 | 22 | 276 | 4.8 | 11.3 | 0.00 | 0.00 | 0.00 | 68 | 1018.7 |
| 20260505150502 | 22 | 282 | 4.8 | 11.3 | 0.00 | 0.00 | 0.00 | 64 | 1018.6 |
| 20260505150227 | 22 | 255 | 4.8 | 11.3 | 0.00 | 0.00 | 0.00 | 64 | 1018.6 |
| 20260505140350 | 22 | 232 | 4.8 | 9.7 | 0.00 | 0.00 | 0.00 | 66 | 1018.4 |
| 20260505130240 | 22 | 172 | 3.2 | 9.7 | 0.00 | 0.00 | 0.00 | 68 | 1018.3 |
| 20260505124720 | 21 | 168 | 3.2 | 8.0 | 0.00 | 0.00 | 0.00 | 72 | 1018.4 |
| 20260505124216 | 21 | 147 | 3.2 | 6.4 | 0.00 | 0.00 | 0.00 | 74 | 1018.4 |
| 20260505123709 | 21 | 176 | 3.2 | 6.4 | 0.00 | 0.00 | 0.00 | 78 | 1018.3 |
| 20260505123205 | 20 | 167 | 1.6 | 4.8 | 0.00 | 0.00 | 0.00 | 81 | 1018.3 |
| 20260505123158 | 20 | 161 | 1.6 | 4.8 | 0.00 | 0.00 | 0.00 | 83 | 1018.3 |
| 20260505122422 | 19 | 244 | 0.0 | 4.8 | 0.00 | 0.00 | 0.00 | 86 | 1018.3 |
| 20260505121644 | 18 | 202 | 0.0 | 3.2 | 0.00 | 0.00 | 0.00 | 89 | 1018.3 |
| 20260505121138 | 18 | 265 | 1.6 | 3.2 | 0.00 | 0.00 | 0.00 | 90 | 1018.3 |
| 20260505120633 | 18 | 263 | 1.6 | 3.2 | 0.00 | 0.00 | 0.00 | 92 | 1018.3 |
| 20260505120127 | 17 | 263 | 0.0 | 3.2 | 0.00 | 0.00 | 0.00 | 93 | 1018.2 |
| 20260505115851 | 17 | 236 | 0.0 | 1.6 | 0.00 | 0.00 | 0.00 | 94 | 1018.2 |
| 20260505115346 | 16 | 256 | 0.0 | 0.0 | 0.00 | 0.00 | 0.00 | 94 | 1018.2 |
| 20260505114608 | 16 | 256 | 0.0 | 0.0 | 0.00 | 0.00 | 0.00 | 94 | 1018.2 |